Location: Melque
(41.0517°N, 4.4694°W)
Time: 18:14:26
(UTC+00:00)

Meteor 2-20 Rocket - Pass Details

Date: 11 December 2025
Orbit: 871 x 1024 km, 82.5° (Epoch: 15 January)

Event Time Altitude Azimuth Distance (km) Brightness Sun altitude
Rises 18:31:53 0° 182° (S) 3,698 7.7 -18.6°
Reaches altitude 10° 18:34:26 10° 181° (S) 2,734 7.0 -19.1°
Maximum altitude 18:40:42 79° 96° (E) 979 4.3 -20.2°
Drops below altitude 10° 18:46:45 10° 10° (N) 2,646 6.5 -21.3°
Enters shadow 18:48:17 - 10° (N) 3,223 7.0 -21.6°
